Weather History for Zapata, TX

Change the Weather History Date:

Wednesday, December 25, 2013

  Actual Average (KLRD) Record (KLRD)
Temperature  
Mean Temperature 51 °F 56 °F  
Max Temperature 65 °F 66 °F 91 °F (1955)
Min Temperature 37 °F 46 °F 14 °F (1983)
Degree Days  
Heating Degree Days 14 10  
Month to date heating degree days 215  
Since 1 July heating degree days 330  
Cooling Degree Days 0 1  
Month to date cooling degree days 29  
Year to date cooling degree days 4284  
Growing Degree Days 1 (Base 50)    
Moisture  
Dew Point 41 °F    
Average Humidity 63    
Maximum Humidity 91    
Minimum Humidity 46    
Precipitation  
Precipitation 0.01 in 0.04 in 1.30 in (1938)
Month to date precipitation 0.69  
Year to date precipitation 20.01  
Sea Level Pressure  
Sea Level Pressure 30.23 in    
Wind  
Wind Speed 2 mph (NNW)    
Max Wind Speed 9 mph    
Max Gust Speed 16 mph    
Visibility 10 miles    
Events Rain    
T = Trace of Precipitation, MM = Missing Value Source: NWS Daily Summary

Daily Weather History Graph

Daily Weather History Graph

Search for Another Location

Airport:

Trip Planner

Search our weather history database for the weather conditions in past years. The results will help you decide how hot, cold, wet, or windy it might be!

Date:

Astronomy

Dec. 25, 2013 Rise Set
Actual Time 7:23 AM CST 5:50 PM CST
Civil Twilight 6:58 AM CST 6:16 PM CST
Nautical Twilight 6:29 AM CST 6:45 PM CST
Astronomical Twilight 6:00 AM CST 7:13 PM CST
Moon 12:22 AM CST (12/25) 12:28 PM CST (12/25)
Length of Visible Light 11h 17m
Length of Day
10h 26m
Waning Gibbous, 48% of the Moon is Illuminated
Dec 25
Waning Gibbous
Jan 1
New
Jan 7
First Quarter
Jan 15
Full
Jan 23
Last Quarter

Hourly Weather History & Observations

Time (CST) Temp. Windchill Dew Point Humidity Pressure Visibility Wind Dir Wind Speed Gust Speed Precip Events Conditions
12:15 AM 42.1 °F 40.2 °F 31.6 °F 67% 30.23 in 10.0 mi East 3.5 mph - N/A   Clear
12:35 AM 40.1 °F 38.0 °F 30.4 °F 68% 30.23 in 10.0 mi East 3.5 mph - N/A   Clear
12:55 AM 39.2 °F - 29.8 °F 69% 30.23 in 10.0 mi Calm Calm - N/A   Clear
1:15 AM 39.6 °F - 31.1 °F 72% 30.23 in 10.0 mi Calm Calm - N/A   Clear
1:35 AM 39.9 °F - 30.6 °F 69% 30.21 in 10.0 mi Calm Calm - N/A   Clear
1:55 AM 39.9 °F - 32.2 °F 74% 30.21 in 10.0 mi Calm Calm - N/A   Clear
2:15 AM 41.2 °F - 32.4 °F 71% 30.20 in 10.0 mi Calm Calm - N/A   Clear
2:35 AM 41.2 °F - 33.8 °F 75% 30.20 in 10.0 mi Calm Calm - N/A   Clear
2:55 AM 39.4 °F 37.2 °F 31.3 °F 73% 30.19 in 10.0 mi ESE 3.5 mph - N/A   Clear
3:15 AM 42.8 °F - 37.0 °F 80% 30.18 in 10.0 mi Calm Calm - N/A   Clear
3:35 AM 39.9 °F - 33.3 °F 77% 30.19 in 10.0 mi Calm Calm - N/A   Clear
3:55 AM 40.3 °F - 34.9 °F 81% 30.19 in 10.0 mi Calm Calm - N/A   Clear
4:15 AM 39.4 °F 36.1 °F 33.6 °F 80% 30.18 in 10.0 mi ENE 4.6 mph - N/A   Clear
4:35 AM 38.5 °F - 31.8 °F 77% 30.18 in 10.0 mi Calm Calm - N/A   Clear
4:55 AM 38.7 °F - 32.0 °F 77% 30.18 in 10.0 mi Calm Calm - N/A   Clear
5:15 AM 38.8 °F - 32.0 °F 76% 30.17 in 10.0 mi Calm Calm - N/A   Clear
5:35 AM 38.5 °F - 32.5 °F 79% 30.17 in 10.0 mi Calm Calm - N/A   Clear
5:55 AM 37.6 °F - 32.4 °F 81% 30.18 in 10.0 mi Calm Calm - N/A   Clear
6:15 AM 37.6 °F - 32.7 °F 83% 30.19 in 10.0 mi Calm Calm - N/A   Clear
6:35 AM 41.0 °F 39.0 °F 38.3 °F 90% 30.20 in 10.0 mi North 3.5 mph - N/A   Clear
6:55 AM 42.3 °F 40.5 °F 39.7 °F 91% 30.21 in 10.0 mi North 3.5 mph - N/A   Scattered Clouds
7:15 AM 39.6 °F - 34.5 °F 82% 30.22 in 10.0 mi Calm Calm - N/A   Mostly Cloudy
7:35 AM 43.0 °F - 37.8 °F 82% 30.22 in 10.0 mi Calm Calm - N/A   Overcast
8:15 AM 41.9 °F - 36.0 °F 79% 30.22 in 10.0 mi Calm Calm - N/A   Clear
8:35 AM 44.6 °F - 38.7 °F 80% 30.23 in 10.0 mi Calm Calm - N/A   Clear
8:55 AM 49.8 °F - 41.7 °F 74% 30.24 in 10.0 mi Calm Calm - N/A   Clear
9:15 AM 55.6 °F - 43.7 °F 64% 30.24 in 10.0 mi Calm Calm - N/A   Clear
9:35 AM 58.5 °F - 44.8 °F 60% 30.24 in 10.0 mi Calm Calm - N/A   Clear
9:55 AM 60.8 °F - 45.5 °F 57% 30.25 in 10.0 mi Calm Calm - N/A   Clear
10:15 AM 60.4 °F - 45.7 °F 58% 30.26 in 10.0 mi Calm Calm - N/A   Mostly Cloudy
10:35 AM 61.0 °F - 46.0 °F 58% 30.26 in 10.0 mi Calm Calm - N/A   Overcast
10:55 AM 62.4 °F - 46.4 °F 56% 30.27 in 10.0 mi Calm Calm - N/A   Overcast
11:15 AM 62.6 °F - 46.9 °F 57% 30.28 in 10.0 mi Calm Calm - N/A   Overcast
11:35 AM 63.1 °F - 46.4 °F 54% 30.28 in 10.0 mi NW 6.9 mph - N/A   Overcast
11:55 AM 62.8 °F - 46.4 °F 55% 30.28 in 10.0 mi WNW 5.8 mph - N/A   Overcast
12:15 PM 62.4 °F - 45.7 °F 54% 30.27 in 10.0 mi West 6.9 mph - N/A   Overcast
12:35 PM 62.4 °F - 45.5 °F 54% 30.25 in 10.0 mi NW 6.9 mph - N/A   Overcast
12:55 PM 62.8 °F - 45.5 °F 53% 30.24 in 10.0 mi NW 9.2 mph - N/A   Overcast
1:15 PM 62.2 °F - 45.5 °F 54% 30.23 in 10.0 mi NW 5.8 mph - N/A   Overcast
1:35 PM 62.8 °F - 45.5 °F 53% 30.22 in 10.0 mi NW 4.6 mph - N/A   Overcast
1:55 PM 63.7 °F - 45.5 °F 52% 30.20 in 10.0 mi NW 3.5 mph - N/A   Overcast
2:15 PM 64.6 °F - 46.0 °F 51% 30.20 in 10.0 mi NNW 3.5 mph - N/A   Overcast
2:35 PM 65.5 °F - 46.6 °F 50% 30.20 in 10.0 mi Calm Calm - N/A   Mostly Cloudy
2:55 PM 65.3 °F - 47.3 °F 52% 30.20 in 10.0 mi Calm Calm - N/A   Overcast
3:15 PM 65.3 °F - 47.1 °F 52% 30.20 in 10.0 mi Calm Calm - N/A   Overcast
3:35 PM 64.9 °F - 46.0 °F 50% 30.20 in 10.0 mi NNW 5.8 mph - N/A   Overcast
3:55 PM 65.3 °F - 46.0 °F 50% 30.20 in 10.0 mi NNW 8.1 mph - N/A   Overcast
4:15 PM 65.3 °F - 46.4 °F 50% 30.21 in 10.0 mi North 4.6 mph - N/A   Overcast
4:35 PM 65.3 °F - 47.7 °F 53% 30.21 in 10.0 mi North 5.8 mph - N/A   Overcast
4:55 PM 64.9 °F - 47.7 °F 54% 30.20 in 10.0 mi North 4.6 mph - N/A   Overcast
5:15 PM 64.6 °F - 47.8 °F 55% 30.20 in 10.0 mi North 6.9 mph - N/A   Overcast
5:35 PM 64.0 °F - 47.5 °F 55% 30.21 in 10.0 mi North 4.6 mph - N/A   Mostly Cloudy
5:55 PM 63.5 °F - 47.5 °F 56% 30.22 in 10.0 mi North 4.6 mph - N/A   Overcast
6:15 PM 63.5 °F - 47.3 °F 56% 30.23 in 10.0 mi NNW 3.5 mph - N/A   Overcast
6:35 PM 63.1 °F - 47.3 °F 56% 30.23 in 10.0 mi NNW 4.6 mph - N/A   Overcast
6:55 PM 63.1 °F - 47.5 °F 57% 30.24 in 10.0 mi NNW 4.6 mph - N/A   Overcast
7:15 PM 62.8 °F - 47.5 °F 57% 30.25 in 10.0 mi NNW 3.5 mph - N/A   Overcast
7:35 PM 62.6 °F - 47.8 °F 58% 30.25 in 10.0 mi North 3.5 mph - N/A   Light Drizzle
7:55 PM 62.2 °F - 47.7 °F 59% 30.27 in 10.0 mi NNW 3.5 mph - N/A   Overcast
8:15 PM 61.7 °F - 48.0 °F 61% 30.27 in 10.0 mi Calm Calm - N/A Rain Light Rain
8:55 PM 60.3 °F - 46.0 °F 59% 30.29 in 10.0 mi NW 8.1 mph - N/A   Light Drizzle
9:15 PM 59.9 °F - 39.6 °F 47% 30.30 in 10.0 mi NW 6.9 mph - N/A   Overcast
9:35 PM 59.7 °F - 39.0 °F 46% 30.30 in 10.0 mi NW 5.8 mph - N/A   Overcast
9:55 PM 59.2 °F - 38.1 °F 46% 30.31 in 10.0 mi NNW 5.8 mph - N/A Rain Light Rain
10:15 PM 59.0 °F - 39.2 °F 48% 30.31 in 10.0 mi NNW 8.1 mph - N/A Rain Light Rain
10:35 PM 57.2 °F - 41.7 °F 56% 30.32 in 10.0 mi NNW 9.2 mph 16.1 mph N/A Rain Rain
10:55 PM 57.2 °F - 40.1 °F 53% 30.32 in 10.0 mi NW 6.9 mph - N/A Rain Light Rain
11:15 PM 57.4 °F - 40.1 °F 53% 30.32 in 10.0 mi NW 6.9 mph - N/A   Light Drizzle
11:35 PM 56.8 °F - 41.5 °F 57% 30.32 in 10.0 mi NW 6.9 mph - N/A Rain Light Rain
11:55 PM 54.0 °F - 45.9 °F 74% 30.32 in 7.0 mi NW 6.9 mph - 0.01 in Rain Rain